Weather past 2 weeks in Malakal, South Sudan

Now
N/A

Clear.


Feels Like: N/A
Forecast: 72 / 94 °F
Wind: 3 mph from North

Location: Khartoum Airport

Current Time: Nov 27, 2014 at 6:13:19 AM

Latest Report: Nov 27, 2014 at 5:30 AM


Visibility: 10 mi

Pressure: 29.95 "Hg

Humidity: N/A

Dew point: N/A

Location of MalakalLocation

Historic Weather in Malakal — Graph

°F

Malakal temperature yesterday

Maximum temperature yesterday: 81 °F (at 2:00 PM)
Minimum temperature yesterday: 61 °F (at 6:00 AM)
Average temperature yesterday: 70 °F

Past Weeks' High & Low Weather Summary

 TemperatureHumidityPressure
High97 °F (Nov 12, 2:00 PM)40% (Nov 12, 9:00 AM)30.07 "Hg (Nov 12, 9:00 AM)
Low61 °F (Nov 25, 7:00 AM)8% (Nov 22, 4:00 PM)29.74 "Hg (Nov 13, 3:00 PM)
Average82 °F21%29.91 "Hg
* Reported Nov 12 8:30 AM — Nov 27 5:00 AM, Malakal, Weather by CustomWeather, © 2014

Note: Actual official high and low records may vary slightly from our data, if they occured in-between our weather recording intervals... More about our weather records

Advertising

Malakal weather history for previous 24 hours

 ConditionsComfort  
Time TempWeatherWind HumidityBarometerVisibility
5:00 AM
Nov 27
63 °FClear.5 mph27%29.95 "Hg10 mi
4:30 AMN/AClear.3 mphN/A29.95 "Hg10 mi
4:00 AM64 °FClear.6 mph30%29.95 "Hg10 mi
8:00 PM
Nov 26
75 °FClear.6 mph16%29.98 "Hg10 mi
7:30 PMN/AClear.7 mphN/A29.95 "Hg10 mi
7:00 PM77 °FClear.7 mph18%29.95 "Hg10 mi
6:30 PMN/AClear.7 mphN/A29.95 "Hg10 mi
6:00 PM81 °FSunny.7 mph17%29.95 "Hg10 mi
5:30 PMN/ASunny.7 mphN/A29.95 "Hg10 mi
5:00 PM81 °FSunny.12 mph17%29.92 "Hg10 mi
4:30 PMN/ASunny.12 mphN/A29.92 "Hg10 mi
3:30 PMN/ASunny.7 mphN/A29.92 "Hg10 mi
3:00 PM81 °FSunny.9 mph14%29.95 "Hg10 mi
2:30 PMN/ASunny.9 mphN/A29.95 "Hg10 mi
2:00 PM81 °FSunny.6 mph17%29.95 "Hg10 mi
1:30 PMN/ASunny.12 mphN/A29.98 "Hg10 mi
1:00 PM77 °FSunny.9 mph18%29.98 "Hg10 mi
12:30 PMN/ASunny.7 mphN/A30.01 "Hg10 mi
12:00 PM77 °FPleasantly warm.12 mph21%30.01 "HgN/A
11:30 AMN/ASunny.16 mphN/A30.01 "Hg10 mi
11:00 AM73 °FSunny.14 mph23%30.04 "Hg10 mi
10:30 AMN/ASunny.13 mphN/A30.04 "Hg10 mi
10:00 AM70 °FSunny.13 mph27%30.04 "Hg10 mi
9:30 AMN/ASunny.12 mphN/A30.04 "Hg10 mi
9:00 AM64 °FSunny.8 mph30%30.04 "Hg10 mi
8:30 AMN/ASunny.12 mphN/A30.04 "Hg10 mi
8:00 AM63 °FSunny.7 mph34%30.04 "Hg10 mi
7:30 AMN/ASunny.6 mphN/A30.01 "Hg10 mi
7:00 AM61 °FSunny.6 mph39%30.01 "Hg10 mi
6:00 AM61 °FClear.12 mph34%29.98 "Hg10 mi
Weather by CustomWeather, © 2014

See weather overviewHow to use our weather pages